Location: Newark
(48.1281°N, 2.1556°W)
Time: 07:18:23
(UTC+00:00)

N. Korean satellite - Visible Passes

Search period start: 14 November 2019 00:00
Search period end: 24 November 2019 00:00
Orbit: 456 x 506 km, 97.2° (Epoch: 13 November)

Date Brightness Start Highest point End Pass type
(mag) Time Alt. Az. Time Alt. Az. Time Alt. Az.
14 Nov 9.7 05:09:36 10° NE 05:12:10 18° E 05:14:43 10° SE visible
14 Nov 7.2 17:20:36 10° S 17:24:10 62° WSW 17:27:50 10° NNW visible
15 Nov 6.6 06:16:42 10° N 06:20:26 79° WNW 06:24:07 10° SSW visible
15 Nov 10.3 18:31:46 10° WSW 18:32:39 11° W 18:33:31 10° WNW visible
16 Nov 7.6 05:51:23 10° NNE 05:55:02 51° E 05:58:39 10° S visible
16 Nov 9.6 18:04:16 10° SW 18:07:01 20° W 18:09:48 10° NW visible
17 Nov 9.0 05:26:21 10° NE 05:29:33 26° E 05:32:42 10° SSE visible
17 Nov 8.3 17:38:04 10° SSW 17:41:28 38° W 17:44:57 10° NNW visible
18 Nov 10.0 05:01:51 10° NE 05:03:57 14° E 05:06:03 10° SE visible
18 Nov 6.8 06:34:01 10° N 06:37:38 48° WNW 06:41:11 10° SSW visible
18 Nov 6.8 17:12:24 10° S 17:16:01 78° WSW 17:19:44 10° NNW visible
19 Nov 6.7 06:08:33 10° NNE 06:12:18 84° ESE 06:15:58 10° SSW visible
19 Nov 10.1 18:22:33 10° WSW 18:24:24 13° W 18:26:15 10° WNW visible
20 Nov 8.0 05:43:18 10° NNE 05:46:51 41° E 05:50:20 10° S visible
20 Nov 9.2 17:55:44 10° SSW 17:58:47 24° W 18:01:52 10° NW visible
21 Nov 9.3 05:18:23 10° NE 05:21:19 22° E 05:24:12 10° SE visible
21 Nov 7.8 17:29:43 10° S 17:33:15 47° W 17:36:52 10° NNW visible
22 Nov 10.2 04:54:18 10° ENE 04:55:40 12° E 04:57:04 10° ESE visible
22 Nov 6.6 06:25:49 10° N 06:29:28 60° WNW 06:33:04 10° SSW visible
22 Nov 6.6 17:04:10 10° SSE 17:07:50 85° ENE 17:11:35 10° NNW visible
23 Nov 7.0 06:00:24 10° NNE 06:04:05 67° E 06:07:43 10° S visible
23 Nov 9.9 18:13:44 10° SW 18:16:06 16° W 18:18:30 10° NW visible
